Find Starlink 35976

NORAD ID: 66534 Int'l Des: 2025-265 Owner: SPXS Country: US Constellation: starlink operational
LEOCIRCULAR

現在のビュー

3D地球を読み込み中...

Starlink 35976について

説明を読み込み中...

次回通過

Passes for default location (London). Set your location on the main map for personalized predictions.

高度履歴

Loading altitude history...

軌道要素

1 66534U 25265U 26150.12470397 .00023425 00000-0 85760-3 0 9996
2 66534 42.9997 178.3952 0000449 151.3873 208.7004 15.27598404 29564
Epoch: May 30, 2026 • Age: 9 hours

現在のステータス

高度 485.3 km
速度 7.62 km/s
衛星直下点 -13.92°S, 52.02°W
打ち上げ日 Nov 19, 2025
運用期間 0.5 years
タイプ internet

技術仕様

分類 Payload
質量 575.00 kg
乾燥質量 530.00 kg
総質量 575.00 kg
長さ 0.30 m
直径 4.10 m
スパン 29.00 m
形状 Box + pan
製造者 SPXS
バスタイプ Starlink V2MO
フェーズステータス In Orbit
所有者/国 SPXS/US

Most Searched